Regional Weather Roundup
Issued by NWS

Home | Current Version | Previous Version | Text Only | Print | Product List | Glossary On
Versions: 1 2 3 4 5 6 7 8 9 10 11 12 13 14 15 16 17 18 19 20 21 22 23 24 25 26 27 28 29 30 31 32 33 34 35 36 37 38 39 40 41 42 43 44 45 46 47 48 49 50
000
ASUS46 KSEW 221410
RWRWA

WASHINGTON REGIONAL WEATHER ROUNDUP
NATIONAL WEATHER SERVICE SEATTLE WA
700 AM PDT MON SEP 22 2014

NOTE:"FAIR" INDICATES FEW OR NO CLOUDS BELOW 12,000 FEET WITH NO
SIGNIFICANT WEATHER AND/OR OBSTRUCTIONS TO VISIBILITY.

WAZ505-507>509-221500-
SEATTLE, TACOMA, EVERETT, AND VICINITY

CITY           SKY/WX    TMP DP  RH WIND       PRES   REMARKS
EVERETT        CLOUDY    62  56  80 S9        29.98R
BOEING FIELD   CLOUDY    64  56  75 S9        29.98R
RENTON         LGT RAIN  61  61 100 CALM      29.98R VSB 1/4
SEATAC AIRPORT DRIZZLE   61  57  87 S8        29.99R
JBLM-MCCHORD   CLOUDY    61  58  92 S5        29.99R
PUYALLUP       NOT AVBL
JBLM-FT LEWIS  CLOUDY    60  59  97 S5        29.98R
TACOMA NARROWS CLOUDY    61  56  83 S6        29.98S
$$

WAZ001-503-506-510-514-515-221500-
NORTH INTERIOR

CITY           SKY/WX    TMP DP  RH WIND       PRES   REMARKS
BELLINGHAM     CLOUDY    62  56  80 S5        29.94S
FRIDAY HARBOR    N/A    N/A N/A N/A MISG      29.95S
EASTSOUND      LGT RAIN  59  57  94 S7        29.91F
PORT ANGELES     N/A     59  57  93 SW3       29.94S
NAS WHIDBEY    CLOUDY    63  57  81 SE6       29.96S
BURLINGTON     CLOUDY    63  59  88 CALM      29.96S
$$

WAZ020-022-039-040-504-511-512-221500-
SOUTHWEST INTERIOR

CITY           SKY/WX    TMP DP  RH WIND       PRES   REMARKS
SHELTON        CLOUDY    59  55  87 S7        29.95S
OLYMPIA        CLOUDY    60  57  89 S3        29.98S
CHEHALIS       CLOUDY    63  61  94 S3        29.98S
KELSO          CLOUDY    61  55  82 SE3       30.03S
VANCOUVER      CLOUDY    62  54  74 SE5       30.00S
SCAPPOOSE, OR  CLOUDY    61  56  83 CALM      29.99R
PORTLAND, OR   CLOUDY    62  55  77 S5        30.01R
$$

WAZ021-516-517-221500-
WASHINGTON COAST

CITY           SKY/WX    TMP DP  RH WIND       PRES   REMARKS
FORKS          CLOUDY    58  57  97 CALM      29.94S
HOQUIAM        CLOUDY    61  58  90 SE9       29.98R
ASTORIA, OR    CLOUDY    60  54  80 CALM      29.98R
$$

WAZ019-023-024-040-518-519-221500-
CASCADE MOUNTAINS AND COLUMBIA GORGE

CITY           SKY/WX    TMP DP  RH WIND       PRES   REMARKS
STAMPEDE PASS  NOT AVBL
TROUTDALE, OR  CLOUDY    63  54  72 SE3       30.00R
THE DALLES, OR MOCLDY    68  53  58 W7        29.90R
$$

WAZ026-027-041>044-520-521-221500-
EAST SLOPES

CITY           SKY/WX    TMP DP  RH WIND       PRES   REMARKS
OMAK           PTCLDY    53  41  63 CALM      29.87S
WENATCHEE      MOCLDY    65  49  56 W3        29.86R
ELLENSBURG     CLOUDY    61  51  70 CALM      29.89R
YAKIMA         MOCLDY    61  51  70 CALM      29.88R
$$

WAZ028-034-035-221500-
COLUMBIA BASIN

CITY           SKY/WX    TMP DP  RH WIND       PRES   REMARKS
EPHRATA        PTCLDY    57  43  59 NE5       29.86R
MOSES LAKE     PTCLDY    53  41  63 N5        29.87R
PASCO          CLEAR     64  53  67 S5        29.85R
HERMISTON, OR  CLEAR     54  46  74 SE3       29.87R
$$

WAZ036>038-221500-
NORTHEAST WASHINGTON

CITY           SKY/WX    TMP DP  RH WIND       PRES   REMARKS
SPOKANE GEIGER MOCLDY    60  44  55 SE6       29.92S
SPOKANE FELTS  PTCLDY    53  46  77 NE3       29.93R
FAIRCHILD AFB  PTCLDY    53  43  69 E3        29.93R
COEURDALENE,ID CLEAR     52  45  76 E3        29.93R
DEER PARK      CLEAR     47  41  80 CALM      29.93R
$$

WAZ029>033-221500-
SOUTHEAST WASHINGTON

CITY           SKY/WX    TMP DP  RH WIND       PRES   REMARKS
PULLMAN        CLOUDY    60  39  45 CALM      29.96S
LEWISTON, ID   CLOUDY    62  44  51 NW5       29.91R
WALLA WALLA    CLOUDY    70  47  43 SE5       29.89R
PENDLETON, OR  PTCLDY    63  44  50 S7        29.90S
$$


USA.gov is the U.S. government's official web portal to all federal, state and local government web resources and services.